map of SVG home
SVG - Airport
Location
City:  Stavanger, Norway
Name:Sola
ICAO:ENZV
IATA:SVG

Details
Type:Airport (Aerodrome, Airfield)
Use:Public/Civil, International (customs port of entry)
Latitude:5852'36"N (58.876778)
Longitude:538'16"E (5.637856)
Datum:WGS 1984
Elevation:29 ft (9 m)
Variation:1.19E (WMM2015 magnetic declination)
0.17 annual change
Runways:2
Longest:8385 × 197 ft (2556 × 60 m), paved

Time
Time Zone:UTC+1 (DST+2)
Local Time:

Weather
METAR:ENZV 180050Z 00000KT 9999 FEW042 15/13 Q1012
TAF:ENZV 172300Z 1800/1824 17007KT 9999 FEW040TCU SCT070 PROB30
TEMPO 1800/1805 SHRA SCT040CB
TEMPO 1805/1812 3000 SHRA BR BKN009 SCT030CB PROB30
TEMPO 1805/1812 TS
BECMG 1808/1810 30010KT

Related Locations
Nearby:
Farthest:CHT: 11385 mi / 18322 km
Waitangi [Tuuta], CIT, NZ

Find:

   beyond  
but within

Other Information
Maps:
NOTAMs:
Links:
Sources:

  
  • flag of Norway
  

Airport Diagram

Airport diagram for SVG

Larger airport diagram (OBSOLETE) from NGA

Sectional Chart

Flight Planning
at skyvector.com

Satellite Image

Google Maps Satellite view

 

Copyright © 2004-2018 Karl L. Swartz. All rights reserved.
The Great Circle Mapper name and logo are trademarks of the Great Circle Mapper.
All other trademarks mentioned herein belong to their respective owners.
Please see credits for attibutions and further copyright information.

  Follow gcmap on Facebook Follow gcmap on Twitter Follow gcmap on Google+ GCmap on LinkedIn

hCard Microformat

Geo Microformat